Location: ???
(35.5616°N, 139.7977°E)
Time: 19:05:06
(UTC+00:00)

SJ-11-01 - Pass Details

Date: 17 November 2025
Orbit: 675 x 689 km, 98.0° (Epoch: 08 December)

Event Time Altitude Azimuth Distance (km) Brightness Sun altitude
Rises 19:25:14 0° 12° (NNE) 3,064 7.7 -23.1°
Reaches altitude 10° 19:27:29 10° 12° (NNE) 2,144 6.9 -22.6°
Maximum altitude 19:32:11 89° 291° (WNW) 694 4.2 -21.7°
Drops below altitude 10° 19:36:52 10° 194° (SSW) 2,131 6.8 -20.7°
Sets 19:39:05 0° 194° (SSW) 3,042 7.6 -20.3°
